This is the latest recevied weather packets stored in our database for station/object WB4FAY-4. If no packets are shown the sender has not sent any weather packets the latest 10 day(s).
| Time | Temp. | Humidity | Pressure | Rain* | Wind** | Luminosity | Snow |
|---|---|---|---|---|---|---|---|
| 1777831217 | 19.44° C | 42% | 1022.3 hPa | 0 mm | - | - | - |
| 1777830917 | 19.44° C | 41% | 1022.4 hPa | 0 mm | - | - | - |
| 1777830617 | 20° C | 40% | 1022.4 hPa | 0 mm | - | - | - |
| 1777830318 | 19.44° C | 39% | 1022.5 hPa | 0 mm | - | - | - |
| 1777830017 | 20° C | 41% | 1022.5 hPa | 0 mm | - | - | - |
| 1777829718 | 19.44° C | 41% | 1022.5 hPa | 0 mm | - | - | - |
| 1777829417 | 19.44° C | 40% | 1022.5 hPa | 0 mm | - | - | - |
| 1777829117 | 19.44° C | 42% | 1022.6 hPa | 0 mm | - | - | - |
| 1777828817 | 18.89° C | 41% | 1022.6 hPa | 0 mm | - | - | - |
| 1777828517 | 18.89° C | 42% | 1022.7 hPa | 0 mm | - | - | - |
| 1777828217 | 18.89° C | 43% | 1022.8 hPa | 0 mm | - | - | - |
| 1777827918 | 18.89° C | 40% | 1022.9 hPa | 0 mm | - | - | - |
| 1777827617 | 18.89° C | 42% | 1022.9 hPa | 0 mm | - | - | - |
| 1777827317 | 18.89° C | 42% | 1022.9 hPa | 0 mm | - | - | - |
| 1777827017 | 18.89° C | 42% | 1023 hPa | 0 mm | - | - | - |
| 1777826718 | 18.89° C | 41% | 1023 hPa | 0 mm | - | - | - |
| 1777826417 | 18.33° C | 44% | 1023 hPa | 0 mm | - | - | - |
| 1777826117 | 18.33° C | 45% | 1023 hPa | 0 mm | - | - | - |
| 1777825818 | 17.78° C | 44% | 1023 hPa | 0 mm | - | - | - |
| 1777825517 | 17.78° C | 44% | 1023.1 hPa | 0 mm | - | - | - |
| 1777825217 | 17.78° C | 47% | 1023.2 hPa | 0 mm | - | - | - |
| 1777824918 | 17.78° C | 46% | 1023.2 hPa | 0 mm | - | - | - |
| 1777824617 | 17.78° C | 45% | 1023.2 hPa | 0 mm | - | - | - |
| 1777824317 | 17.78° C | 46% | 1023.2 hPa | 0 mm | - | - | - |
| 1777824017 | 17.22° C | 49% | 1023.3 hPa | 0 mm | - | - | - |
* Rain latest 24 hours (hover to see other rain measurements)
** Current wind speed in m/s (hover to see current wind gust speed)